Terug naar catalogus

NOAA 16 DEB

ActiefPO
NORAD 42340·DEBRIS·🇺🇸 United States

Gelanceerd Sep 21, 2000 vanaf Vandenberg Space Force Base

Loading…

Volgende Passages (komende 24 uur)

TLE

VersSource: Space-Track

Epoch: Sep 14, 2026, 07:35 UTC

1 42340U 00055QG  26257.31612305  .00007120  00000-0  18090-2 0  9996
2 42340  99.0276  69.4489 0023797 337.7502  22.2656 14.50895810544943

Volg NOAA 16 DEB in realtime met AllMySat

Download on the App Store